| time (UTC) | temp C | wind direction | speed KPH | gust KPH | rain 1hr cm | rain 24hr cm | rain mn cm | humidity % | barometer mb |
| 20260503181935 | 17 | 7 | 1.6 | 3.2 | 0.00 | 0.00 | 0.00 | 66 | 1014.2 |
| 20260503181432 | 16 | 113 | 1.6 | 1.6 | 0.00 | 0.00 | 0.00 | 69 | 1014.0 |
| 20260503180928 | 16 | 17 | 1.6 | 3.2 | 0.00 | 0.00 | 0.00 | 70 | 1014.0 |
| 20260503180427 | 16 | 353 | 6.4 | 9.7 | 0.00 | 0.00 | 0.00 | 71 | 1014.1 |
| 20260503175922 | 16 | 328 | 0.0 | 0.0 | 0.00 | 0.00 | 0.00 | 72 | 1014.0 |
| 20260503175420 | 16 | 313 | 1.6 | 3.2 | 0.00 | 0.00 | 0.00 | 72 | 1014.1 |
| 20260503174915 | 16 | 220 | 3.2 | 4.8 | 0.00 | 0.00 | 0.00 | 71 | 1014.2 |
| 20260503174414 | 16 | 300 | 3.2 | 6.4 | 0.00 | 0.00 | 0.00 | 71 | 1014.0 |
| 20260503173909 | 16 | 319 | 6.4 | 9.7 | 0.00 | 0.00 | 0.00 | 71 | 1014.1 |
| 20260503173405 | 16 | 37 | 3.2 | 3.2 | 0.00 | 0.00 | 0.00 | 71 | 1014.0 |
| 20260503172902 | 15 | 1 | 3.2 | 4.8 | 0.00 | 0.00 | 0.00 | 73 | 1014.2 |
| 20260503172400 | 15 | 227 | 4.8 | 4.8 | 0.00 | 0.00 | 0.00 | 74 | 1014.1 |
| 20260503171855 | 15 | 287 | 4.8 | 6.4 | 0.00 | 0.00 | 0.00 | 73 | 1014.0 |
| 20260503171353 | 15 | 332 | 3.2 | 4.8 | 0.00 | 0.00 | 0.00 | 76 | 1014.1 |
| 20260503170850 | 15 | 295 | 6.4 | 9.7 | 0.00 | 0.00 | 0.00 | 76 | 1014.0 |
| 20260503170346 | 15 | 14 | 6.4 | 9.7 | 0.00 | 0.00 | 0.00 | 77 | 1014.2 |
| 20260503150739 | 13 | 330 | 0.0 | 0.0 | 0.00 | 0.00 | 0.00 | 84 | 1013.5 |
| 20260503150235 | 12 | 300 | 1.6 | 1.6 | 0.00 | 0.00 | 0.00 | 85 | 1013.4 |
| 20260503140159 | 12 | 313 | 0.0 | 1.6 | 0.00 | 0.00 | 0.00 | 88 | 1012.7 |
| 20260503131129 | 12 | 307 | 3.2 | 4.8 | 0.00 | 0.00 | 0.00 | 89 | 1011.9 |
| 20260503130626 | 12 | 244 | 4.8 | 4.8 | 0.00 | 0.00 | 0.00 | 89 | 1011.8 |
| 20260503130124 | 12 | 309 | 1.6 | 1.6 | 0.00 | 0.00 | 0.00 | 89 | 1012.0 |
| 20260503110516 | 12 | 338 | 0.0 | 1.6 | 0.00 | 0.00 | 0.00 | 88 | 1011.8 |
| 20260503090356 | 12 | 292 | 1.6 | 3.2 | 0.00 | 0.00 | 0.00 | 87 | 1012.2 |
| 20260503081323 | 12 | 308 | 3.2 | 3.2 | 0.00 | 0.00 | 0.00 | 88 | 1012.9 |
| 20260503080820 | 12 | 319 | 3.2 | 3.2 | 0.00 | 0.00 | 0.00 | 88 | 1013.0 |
| 20260503080317 | 12 | 317 | 4.8 | 6.4 | 0.00 | 0.00 | 0.00 | 88 | 1012.8 |
| 20260503072753 | 12 | 20 | 1.6 | 1.6 | 0.00 | 0.00 | 0.00 | 87 | 1013.0 |
| 20260503072250 | 12 | 286 | 4.8 | 6.4 | 0.00 | 0.00 | 0.00 | 87 | 1012.9 |
| 20260503071746 | 12 | 270 | 3.2 | 4.8 | 0.00 | 0.00 | 0.00 | 87 | 1013.0 |
| 20260503071244 | 12 | 328 | 3.2 | 4.8 | 0.00 | 0.00 | 0.00 | 87 | 1012.9 |
| 20260503070740 | 12 | 359 | 3.2 | 6.4 | 0.00 | 0.00 | 0.00 | 87 | 1012.9 |
| 20260503070238 | 12 | 262 | 1.6 | 3.2 | 0.00 | 0.00 | 0.00 | 88 | 1012.9 |
| 20260503060157 | 12 | 307 | 3.2 | 3.2 | 0.00 | 0.00 | 0.00 | 87 | 1013.2 |
| 20260503054644 | 12 | 336 | 1.6 | 3.2 | 0.00 | 0.00 | 0.00 | 87 | 1013.7 |
| 20260503054141 | 12 | 278 | 4.8 | 4.8 | 0.00 | 0.00 | 0.00 | 87 | 1013.6 |
| 20260503053639 | 12 | 282 | 4.8 | 6.4 | 0.00 | 0.00 | 0.00 | 87 | 1013.6 |
| 20260503053138 | 12 | 265 | 9.7 | 12.9 | 0.00 | 0.00 | 0.00 | 87 | 1013.5 |
| 20260503052634 | 12 | 353 | 0.0 | 0.0 | 0.00 | 0.00 | 0.00 | 87 | 1013.7 |
| 20260503052130 | 12 | 21 | 0.0 | 1.6 | 0.00 | 0.00 | 0.00 | 87 | 1013.7 |
| 20260503051625 | 12 | 342 | 1.6 | 1.6 | 0.00 | 0.00 | 0.00 | 87 | 1013.6 |
| 20260503051124 | 12 | 355 | 1.6 | 3.2 | 0.00 | 0.00 | 0.00 | 87 | 1013.5 |
| 20260503050620 | 12 | 277 | 6.4 | 9.7 | 0.00 | 0.00 | 0.00 | 87 | 1013.4 |
| 20260503050117 | 12 | 325 | 3.2 | 4.8 | 0.00 | 0.00 | 0.00 | 87 | 1013.5 |
| 20260503045614 | 12 | 262 | 3.2 | 4.8 | 0.00 | 0.00 | 0.00 | 87 | 1013.3 |
| 20260503045111 | 12 | 9 | 0.0 | 1.6 | 0.00 | 0.00 | 0.00 | 87 | 1013.5 |
| 20260503044608 | 12 | 227 | 3.2 | 4.8 | 0.00 | 0.00 | 0.00 | 87 | 1013.5 |
| 20260503044105 | 12 | 298 | 1.6 | 3.2 | 0.00 | 0.00 | 0.00 | 87 | 1013.3 |
| 20260503043601 | 12 | 318 | 1.6 | 3.2 | 0.00 | 0.00 | 0.00 | 87 | 1013.6 |
| 20260503043058 | 12 | 302 | 3.2 | 4.8 | 0.00 | 0.00 | 0.00 | 87 | 1013.5 |
| 20260503042555 | 12 | 358 | 1.6 | 1.6 | 0.00 | 0.00 | 0.00 | 87 | 1013.6 |
| 20260503042051 | 12 | 323 | 4.8 | 6.4 | 0.00 | 0.00 | 0.00 | 87 | 1013.3 |
| 20260503041548 | 12 | 322 | 4.8 | 6.4 | 0.00 | 0.00 | 0.00 | 88 | 1013.4 |
| 20260503041046 | 12 | 274 | 1.6 | 1.6 | 0.00 | 0.00 | 0.00 | 88 | 1013.3 |
| 20260503040543 | 12 | 301 | 6.4 | 9.7 | 0.00 | 0.00 | 0.00 | 88 | 1013.3 |
| 20260503040040 | 12 | 293 | 3.2 | 4.8 | 0.00 | 0.00 | 0.00 | 88 | 1013.1 |
| 20260503035537 | 12 | 10 | 0.0 | 1.6 | 0.00 | 0.00 | 0.00 | 87 | 1013.2 |
| 20260503035035 | 12 | 9 | 0.0 | 3.2 | 0.00 | 0.00 | 0.00 | 87 | 1013.1 |
| 20260503034531 | 12 | 250 | 4.8 | 6.4 | 0.00 | 0.00 | 0.00 | 86 | 1013.1 |
| 20260503034029 | 12 | 278 | 6.4 | 6.4 | 0.00 | 0.00 | 0.00 | 86 | 1012.8 |
| 20260503033526 | 12 | 305 | 3.2 | 4.8 | 0.00 | 0.00 | 0.00 | 86 | 1013.0 |
| 20260503033024 | 12 | 309 | 4.8 | 4.8 | 0.00 | 0.00 | 0.00 | 86 | 1013.0 |
| 20260503032522 | 12 | 236 | 3.2 | 9.7 | 0.00 | 0.00 | 0.00 | 86 | 1012.8 |
| 20260503032019 | 12 | 264 | 4.8 | 4.8 | 0.00 | 0.00 | 0.00 | 86 | 1012.6 |
| 20260503031517 | 12 | 270 | 4.8 | 4.8 | 0.00 | 0.00 | 0.00 | 86 | 1012.8 |
| 20260503031014 | 12 | 227 | 4.8 | 6.4 | 0.00 | 0.00 | 0.00 | 85 | 1012.6 |
| 20260503030510 | 12 | 292 | 6.4 | 6.4 | 0.00 | 0.00 | 0.00 | 86 | 1012.7 |
| 20260503030008 | 12 | 334 | 3.2 | 3.2 | 0.00 | 0.00 | 0.00 | 86 | 1012.5 |
| 20260503025504 | 12 | 329 | 4.8 | 6.4 | 0.00 | 0.00 | 0.00 | 86 | 1012.7 |
| 20260503025002 | 12 | 313 | 4.8 | 9.7 | 0.00 | 0.00 | 0.00 | 86 | 1012.7 |
| 20260503024457 | 12 | 316 | 6.4 | 9.7 | 0.00 | 0.00 | 0.00 | 86 | 1012.7 |
| 20260503023955 | 12 | 294 | 6.4 | 11.3 | 0.00 | 0.00 | 0.00 | 85 | 1012.7 |
| 20260503023452 | 12 | 290 | 1.6 | 3.2 | 0.00 | 0.00 | 0.00 | 84 | 1012.8 |
| 20260503022949 | 12 | 337 | 4.8 | 6.4 | 0.00 | 0.00 | 0.00 | 84 | 1012.7 |
| 20260503022444 | 12 | 232 | 6.4 | 6.4 | 0.00 | 0.00 | 0.00 | 85 | 1012.8 |
| 20260503021940 | 12 | 276 | 8.0 | 9.7 | 0.00 | 0.00 | 0.00 | 86 | 1012.8 |
| 20260503021436 | 12 | 18 | 8.0 | 11.3 | 0.00 | 0.00 | 0.00 | 86 | 1012.5 |
| 20260503020934 | 13 | 277 | 3.2 | 3.2 | 0.00 | 0.00 | 0.00 | 85 | 1012.8 |
| 20260503020432 | 13 | 233 | 4.8 | 9.7 | 0.00 | 0.00 | 0.00 | 84 | 1012.7 |
| 20260503015928 | 13 | 276 | 6.4 | 11.3 | 0.00 | 0.00 | 0.00 | 84 | 1012.8 |
| 20260503015424 | 13 | 276 | 8.0 | 9.7 | 0.00 | 0.00 | 0.00 | 83 | 1012.6 |
| 20260503014920 | 13 | 292 | 6.4 | 9.7 | 0.00 | 0.00 | 0.00 | 83 | 1013.0 |
| 20260503014418 | 13 | 12 | 4.8 | 6.4 | 0.00 | 0.00 | 0.00 | 83 | 1012.5 |
| 20260503013916 | 13 | 319 | 1.6 | 1.6 | 0.00 | 0.00 | 0.00 | 84 | 1012.7 |
| 20260503013413 | 13 | 266 | 3.2 | 3.2 | 0.00 | 0.00 | 0.00 | 83 | 1012.8 |
| 20260503012910 | 13 | 273 | 4.8 | 6.4 | 0.00 | 0.00 | 0.00 | 82 | 1012.9 |
| 20260503012408 | 13 | 227 | 6.4 | 9.7 | 0.00 | 0.00 | 0.00 | 81 | 1012.8 |
| 20260503011904 | 13 | 4 | 1.6 | 1.6 | 0.00 | 0.00 | 0.00 | 81 | 1013.0 |
| 20260503011401 | 13 | 302 | 6.4 | 6.4 | 0.00 | 0.00 | 0.00 | 81 | 1013.1 |
| 20260503010857 | 13 | 285 | 6.4 | 11.3 | 0.00 | 0.00 | 0.00 | 81 | 1012.9 |
| 20260503010354 | 13 | 7 | 1.6 | 3.2 | 0.00 | 0.00 | 0.00 | 80 | 1013.0 |
| 20260503005851 | 13 | 298 | 3.2 | 3.2 | 0.00 | 0.00 | 0.00 | 80 | 1012.9 |
| 20260503005349 | 13 | 256 | 4.8 | 11.3 | 0.00 | 0.00 | 0.00 | 79 | 1013.0 |
| 20260503004845 | 14 | 298 | 4.8 | 4.8 | 0.00 | 0.00 | 0.00 | 78 | 1013.0 |
| 20260503004342 | 14 | 338 | 4.8 | 9.7 | 0.00 | 0.00 | 0.00 | 78 | 1013.1 |
| 20260503003840 | 14 | 359 | 4.8 | 11.3 | 0.00 | 0.00 | 0.00 | 78 | 1013.2 |
| 20260503003336 | 14 | 305 | 9.7 | 12.9 | 0.00 | 0.00 | 0.00 | 77 | 1013.2 |
| 20260503002833 | 14 | 279 | 3.2 | 3.2 | 0.00 | 0.00 | 0.00 | 77 | 1013.1 |
| 20260503002331 | 14 | 316 | 8.0 | 12.9 | 0.00 | 0.00 | 0.00 | 77 | 1013.2 |
| 20260503001827 | 15 | 278 | 1.6 | 3.2 | 0.00 | 0.00 | 0.00 | 76 | 1013.1 |
| 20260503001323 | 15 | 227 | 3.2 | 4.8 | 0.00 | 0.00 | 0.00 | 75 | 1013.1 |
| 20260503000821 | 15 | 341 | 1.6 | 3.2 | 0.00 | 0.00 | 0.00 | 75 | 1013.0 |
| 20260503000319 | 15 | 270 | 6.4 | 11.3 | 0.00 | 0.00 | 0.00 | 75 | 1013.0 |
| 20260502235815 | 15 | 28 | 1.6 | 1.6 | 0.00 | 0.00 | 0.00 | 75 | 1013.2 |
| 20260502235312 | 15 | 259 | 9.7 | 12.9 | 0.00 | 0.00 | 0.00 | 74 | 1013.2 |
| 20260502234809 | 16 | 281 | 9.7 | 12.9 | 0.00 | 0.00 | 0.00 | 73 | 1013.3 |
| 20260502234306 | 16 | 315 | 4.8 | 6.4 | 0.00 | 0.00 | 0.00 | 71 | 1013.1 |
| 20260502233802 | 16 | 304 | 6.4 | 9.7 | 0.00 | 0.00 | 0.00 | 73 | 1013.1 |
| 20260502233259 | 16 | 249 | 6.4 | 11.3 | 0.00 | 0.00 | 0.00 | 72 | 1013.3 |
| 20260502232755 | 16 | 6 | 1.6 | 3.2 | 0.00 | 0.00 | 0.00 | 72 | 1013.3 |
| 20260502232252 | 16 | 278 | 4.8 | 9.7 | 0.00 | 0.00 | 0.00 | 70 | 1013.5 |
| 20260502231748 | 17 | 279 | 9.7 | 12.9 | 0.00 | 0.00 | 0.00 | 69 | 1013.4 |
| 20260502231246 | 17 | 279 | 9.7 | 12.9 | 0.00 | 0.00 | 0.00 | 69 | 1013.4 |
| 20260502230745 | 17 | 319 | 4.8 | 4.8 | 0.00 | 0.00 | 0.00 | 67 | 1013.4 |
| 20260502230243 | 17 | 282 | 9.7 | 12.9 | 0.00 | 0.00 | 0.00 | 68 | 1013.5 |
| 20260502225739 | 17 | 14 | 4.8 | 6.4 | 0.00 | 0.00 | 0.00 | 68 | 1013.7 |
| 20260502225236 | 17 | 53 | 0.0 | 1.6 | 0.00 | 0.00 | 0.00 | 69 | 1013.9 |
| 20260502224732 | 17 | 0 | 8.0 | 11.3 | 0.00 | 0.00 | 0.00 | 68 | 1013.8 |
| 20260502224229 | 17 | 273 | 11.3 | 12.9 | 0.00 | 0.00 | 0.00 | 68 | 1013.9 |
| 20260502223726 | 17 | 282 | 6.4 | 12.9 | 0.00 | 0.00 | 0.00 | 68 | 1013.8 |
| 20260502223224 | 17 | 345 | 1.6 | 3.2 | 0.00 | 0.00 | 0.00 | 69 | 1013.8 |
| 20260502222722 | 17 | 215 | 3.2 | 4.8 | 0.00 | 0.00 | 0.00 | 68 | 1014.0 |
| 20260502222218 | 17 | 256 | 6.4 | 11.3 | 0.00 | 0.00 | 0.00 | 69 | 1013.9 |
| 20260502221714 | 17 | 285 | 8.0 | 11.3 | 0.00 | 0.00 | 0.00 | 70 | 1013.9 |
| 20260502221211 | 17 | 253 | 6.4 | 9.7 | 0.00 | 0.00 | 0.00 | 69 | 1014.1 |
| 20260502220707 | 16 | 292 | 9.7 | 12.9 | 0.00 | 0.00 | 0.00 | 71 | 1014.2 |
| 20260502220204 | 16 | 312 | 4.8 | 6.4 | 0.00 | 0.00 | 0.00 | 71 | 1014.2 |
| 20260502215701 | 16 | 286 | 11.3 | 14.5 | 0.00 | 0.00 | 0.00 | 72 | 1014.1 |
| 20260502215157 | 16 | 309 | 8.0 | 17.7 | 0.00 | 0.00 | 0.00 | 74 | 1014.2 |
| 20260502214655 | 17 | 296 | 6.4 | 9.7 | 0.00 | 0.00 | 0.00 | 73 | 1014.0 |
| 20260502214152 | 16 | 323 | 8.0 | 11.3 | 0.00 | 0.00 | 0.00 | 73 | 1013.9 |
| 20260502213649 | 17 | 315 | 9.7 | 14.5 | 0.00 | 0.00 | 0.00 | 72 | 1014.2 |
| 20260502213146 | 16 | 289 | 6.4 | 9.7 | 0.00 | 0.00 | 0.00 | 72 | 1014.2 |
| 20260502212645 | 16 | 278 | 11.3 | 17.7 | 0.00 | 0.00 | 0.00 | 74 | 1014.2 |
| 20260502212143 | 17 | 320 | 4.8 | 6.4 | 0.00 | 0.00 | 0.00 | 74 | 1014.2 |
| 20260502211638 | 16 | 34 | 1.6 | 3.2 | 0.00 | 0.00 | 0.00 | 75 | 1014.3 |
| 20260502211135 | 17 | 185 | 9.7 | 12.9 | 0.00 | 0.00 | 0.00 | 74 | 1014.2 |
| 20260502210633 | 16 | 223 | 8.0 | 14.5 | 0.00 | 0.00 | 0.00 | 74 | 1014.4 |
| 20260502210130 | 17 | 254 | 6.4 | 6.4 | 0.00 | 0.00 | 0.00 | 74 | 1014.5 |
| 20260502205626 | 17 | 288 | 4.8 | 6.4 | 0.00 | 0.00 | 0.00 | 74 | 1014.5 |
| 20260502205123 | 17 | 260 | 1.6 | 3.2 | 0.00 | 0.00 | 0.00 | 75 | 1014.4 |
| 20260502204620 | 16 | 292 | 4.8 | 4.8 | 0.00 | 0.00 | 0.00 | 77 | 1014.5 |
| 20260502204118 | 17 | 234 | 3.2 | 4.8 | 0.00 | 0.00 | 0.00 | 75 | 1014.5 |
| 20260502203615 | 16 | 284 | 3.2 | 4.8 | 0.00 | 0.00 | 0.00 | 77 | 1014.6 |
| 20260502203112 | 17 | 319 | 4.8 | 6.4 | 0.00 | 0.00 | 0.00 | 76 | 1014.7 |
| 20260502202607 | 16 | 266 | 4.8 | 4.8 | 0.00 | 0.00 | 0.00 | 79 | 1014.8 |
| 20260502202105 | 16 | 254 | 3.2 | 3.2 | 0.00 | 0.00 | 0.00 | 78 | 1014.7 |
| 20260502201556 | 16 | 262 | 1.6 | 3.2 | 0.00 | 0.00 | 0.00 | 78 | 1014.8 |
| 20260502201052 | 17 | 280 | 3.2 | 4.8 | 0.00 | 0.00 | 0.00 | 76 | 1015.0 |
| 20260502200547 | 16 | 278 | 4.8 | 12.9 | 0.00 | 0.00 | 0.00 | 79 | 1014.8 |
| 20260502200041 | 16 | 279 | 9.7 | 12.9 | 0.00 | 0.00 | 0.00 | 78 | 1014.9 |
| 20260502195538 | 16 | 278 | 3.2 | 4.8 | 0.00 | 0.00 | 0.00 | 78 | 1014.6 |
| 20260502195034 | 17 | 268 | 6.4 | 11.3 | 0.00 | 0.00 | 0.00 | 76 | 1014.7 |
| 20260502194530 | 16 | 357 | 9.7 | 12.9 | 0.00 | 0.00 | 0.00 | 78 | 1014.9 |
| 20260502194026 | 17 | 339 | 4.8 | 6.4 | 0.00 | 0.00 | 0.00 | 77 | 1014.7 |
| 20260502193524 | 16 | 315 | 6.4 | 11.3 | 0.00 | 0.00 | 0.00 | 78 | 1014.9 |
| 20260502193021 | 16 | 318 | 9.7 | 12.9 | 0.00 | 0.00 | 0.00 | 77 | 1014.5 |
| 20260502192516 | 16 | 345 | 6.4 | 9.7 | 0.00 | 0.00 | 0.00 | 78 | 1014.6 |
| 20260502192014 | 16 | 335 | 1.6 | 1.6 | 0.00 | 0.00 | 0.00 | 79 | 1014.8 |
| 20260502191511 | 16 | 271 | 6.4 | 11.3 | 0.00 | 0.00 | 0.00 | 78 | 1014.9 |
| 20260502191009 | 16 | 273 | 4.8 | 6.4 | 0.00 | 0.00 | 0.00 | 78 | 1014.8 |
| 20260502190506 | 16 | 286 | 3.2 | 6.4 | 0.00 | 0.00 | 0.00 | 77 | 1014.8 |
| 20260502190003 | 17 | 297 | 6.4 | 9.7 | 0.00 | 0.00 | 0.00 | 75 | 1014.6 |
| 20260502185458 | 17 | 350 | 1.6 | 3.2 | 0.00 | 0.00 | 0.00 | 76 | 1014.6 |
| 20260502184954 | 16 | 351 | 3.2 | 3.2 | 0.00 | 0.00 | 0.00 | 78 | 1014.7 |
| 20260502184450 | 17 | 329 | 0.0 | 0.0 | 0.00 | 0.00 | 0.00 | 76 | 1014.6 |
| 20260502183947 | 17 | 281 | 3.2 | 4.8 | 0.00 | 0.00 | 0.00 | 76 | 1014.7 |
| 20260502183443 | 16 | 348 | 6.4 | 6.4 | 0.00 | 0.00 | 0.00 | 78 | 1014.8 |
| 20260502182938 | 16 | 7 | 6.4 | 6.4 | 0.00 | 0.00 | 0.00 | 77 | 1014.6 |
| 20260502182434 | 16 | 12 | 8.0 | 9.7 | 0.00 | 0.00 | 0.00 | 76 | 1014.6 |